[[{"header":{"parameterUnit":"m.s-1","parameterCategory":2,"la1":30.2991,"la2":30.254,"lo1":-89.0895,"lo2":-89.0444,"dy":0.0017,"dx":0.0017,"nx":28,"ny":28,"refTime":"2025-08-21T21:00:00:Z","depth":"0","parameterNumber":2,"parameterNumberName":"U-component_of_CURRENTS"},"data":[0,0,0,0,0,0,0,0,0,0,0,0,0,0,0,0,0,0,0,0,0,0,0,0,0,0,0,0,0,0,0,0,0,0,0,0,0,0,0,0,0,0,0,0,0,0,0,0,0,0,0,0,0,0,0,0,0,0,-0.1721,-0.1722,0,-0.1762,-0.1762,-0.1763,-0.1746,-0.1745,-0.1745,-0.1744,-0.1694,-0.1694,-0.1693,0,0,0,0,0,0,0,0,0,0,0,0,0,-0.1581,-0.1584,-0.1721,-0.1722,-0.1722,-0.1762,-0.1762,-0.1763,-0.1746,-0.1745,-0.1744,-0.1744,-0.1695,-0.1694,-0.1693,0,0,0,0,0,0,0,0,0,0,0,0,0,-0.1632,-0.1585,-0.1721,-0.1721,-0.1722,-0.1762,-0.1762,-0.1763,-0.1746,-0.1745,-0.1744,-0.1743,-0.1695,-0.1694,-0.1693,-0.1708,0,0,-0.169,-0.1689,0,0,0,0,0,0,0,0,-0.1629,-0.1636,-0.172,-0.1721,-0.1722,-0.175,-0.1695,-0.1741,-0.1747,-0.1734,-0.1744,-0.1743,-0.1707,-0.1705,-0.1713,-0.1706,-0.1704,-0.169,-0.1689,-0.1689,-0.1689,0,0,0,0,0,0,0,-0.1625,-0.1634,-0.1734,-0.1721,-0.1722,-0.1703,-0.1709,-0.1704,-0.1722,-0.1735,-0.1735,-0.1744,-0.1707,-0.1714,-0.1711,-0.1703,-0.169,-0.1689,-0.1688,-0.1688,-0.1703,-0.1704,0,0,0,0,0,0,-0.163,-0.1632,-0.1733,-0.1736,-0.1675,-0.1707,-0.1714,-0.174,-0.1724,-0.1722,-0.1745,-0.1743,-0.1716,-0.1712,-0.1709,-0.172,-0.1689,-0.1688,-0.1687,-0.1702,-0.1703,-0.1705,0,0,0,0,0,0,-0.1628,-0.164,-0.1731,-0.1685,-0.1696,-0.1711,-0.174,-0.1741,-0.1745,-0.1733,-0.1729,-0.1747,-0.1715,-0.1711,-0.1707,-0.1718,-0.1687,-0.1687,-0.1701,-0.1703,-0.1704,-0.1746,0,0,0,0,0,0,-0.1624,-0.1639,-0.1649,-0.1687,-0.1699,-0.1751,-0.1742,-0.1743,-0.1754,-0.1752,-0.1734,-0.1729,-0.1714,-0.1709,-0.1706,-0.1716,-0.1686,-0.17,-0.1702,-0.1704,-0.1743,-0.1749,-0.1753,0,0,0,0,0,-0.1619,-0.1636,-0.165,-0.1661,-0.1717,-0.1752,-0.1756,-0.176,-0.1755,-0.1759,-0.1751,-0.1729,-0.1718,-0.1709,-0.1705,-0.1715,-0.1699,-0.1701,-0.1703,-0.1741,-0.1748,-0.1753,0,0,0,0,0,0,-0.1571,-0.1637,-0.1653,-0.1687,-0.1717,-0.175,-0.1755,-0.1764,-0.1764,-0.1758,-0.1741,-0.1736,-0.174,-0.1725,-0.1714,-0.1727,-0.1706,-0.1707,-0.1735,-0.1741,-0.1746,-0.1751,-0.1685,0,0,0,0,0,-0.1571,-0.1607,-0.1658,-0.1684,-0.1703,-0.1731,-0.1743,-0.1753,-0.1765,-0.1764,-0.1755,-0.1747,-0.1749,-0.1741,-0.1739,-0.1743,-0.1743,-0.1748,-0.1753,-0.1758,-0.1761,-0.1799,-0.1808,-0.1712,-0.1712,-0.1712,0,0,-0.1557,-0.16,-0.1617,-0.1676,-0.1701,-0.1735,-0.1735,-0.176,-0.1779,-0.1758,-0.1768,-0.1764,-0.1756,-0.1765,-0.1764,-0.1749,-0.1781,-0.176,-0.1764,-0.1765,-0.1803,-0.1812,-0.1821,-0.1713,-0.1713,-0.1713,0,0,-0.1556,-0.1591,-0.1624,-0.1657,-0.1706,-0.1728,-0.1738,-0.1776,-0.1781,-0.1796,-0.1793,-0.1805,-0.179,-0.1802,-0.1802,-0.1836,-0.1811,-0.1823,-0.1846,-0.1884,-0.1892,-0.1899,-0.1892,-0.1898,-0.182,-0.1821,-0.1821,0,-0.1532,-0.1591,-0.1632,-0.1674,-0.1698,-0.1729,-0.176,-0.178,-0.1806,-0.1818,-0.1799,-0.1825,-0.1815,-0.1849,-0.1853,-0.1848,-0.1844,-0.1822,-0.1891,-0.1898,-0.1905,-0.1896,-0.1902,-0.1823,-0.1823,-0.1822,-0.1822,0,-0.1565,-0.1606,-0.1626,-0.1696,-0.1723,-0.1754,-0.1796,-0.1817,-0.1825,-0.1844,-0.1873,-0.1875,-0.1889,-0.1891,-0.1874,-0.1921,-0.1892,-0.1898,-0.1876,-0.1917,-0.1904,-0.191,-0.1826,-0.1825,-0.1825,-0.1824,0,0,-0.1524,-0.1629,-0.1634,-0.1671,-0.1737,-0.1766,-0.1805,-0.1853,-0.1884,-0.1899,-0.1932,-0.1948,-0.195,-0.1952,-0.1949,-0.1973,-0.2009,-0.1946,-0.1947,-0.1937,-0.2055,-0.1907,-0.1899,-0.2023,-0.2025,-0.2026,-0.2019,0,-0.1533,-0.161,-0.1659,-0.1715,-0.1757,-0.1802,-0.1839,-0.1883,-0.1909,-0.1946,-0.1967,-0.199,-0.1974,-0.1978,-0.2006,-0.201,-0.203,-0.2008,-0.2017,-0.2016,-0.188,-0.1903,-0.181,-0.1784,-0.2025,-0.2026,-0.2026,0,-0.1549,-0.16,-0.1659,-0.1744,-0.1765,-0.1796,-0.1865,-0.1904,-0.1966,-0.1986,-0.2023,-0.2032,-0.2067,-0.2048,-0.2087,-0.2068,-0.2063,-0.2065,-0.2066,-0.1918,-0.188,-0.1786,-0.1786,-0.1771,-0.2036,-0.2035,-0.2034,0,-0.1506,-0.1599,-0.1643,-0.1672,-0.1768,-0.1794,-0.1837,-0.1907,-0.1947,-0.2008,-0.2032,-0.2081,-0.2089,-0.2117,-0.2092,-0.2098,-0.2116,-0.2135,-0.2002,-0.199,-0.1907,-0.1883,-0.1893,-0.2177,-0.2177,-0.2177,-0.2177,0,-0.1503,-0.1535,-0.1626,-0.165,-0.1701,-0.177,-0.1825,-0.1879,-0.1953,-0.1998,-0.2041,-0.207,-0.2107,-0.2109,-0.2107,-0.2041,-0.213,-0.2001,-0.1984,-0.1913,-0.1891,-0.1868,-0.1894,-0.2177,-0.2177,-0.2177,-0.2177,0,-0.1454,-0.1514,-0.1569,-0.1659,-0.1684,-0.1717,-0.1812,-0.1859,-0.1926,-0.1984,-0.2,-0.2059,-0.2048,-0.2053,-0.2076,-0.203,-0.1961,-0.1968,-0.1844,-0.1811,-0.1649,-0.168,-0.1662,-0.1613,-0.1831,-0.1827,-0.1824,0,-0.1441,-0.1464,-0.1555,-0.1584,-0.162,-0.1682,-0.173,-0.1826,-0.1876,-0.1968,-0.1988,-0.1995,-0.1975,-0.1919,-0.1856,-0.18,-0.183,-0.1668,-0.167,-0.1613,-0.164,-0.1673,-0.1638,-0.1581,-0.1577,-0.1573,-0.157,0,-0.1402,-0.1429,-0.1473,-0.1533,-0.158,-0.1645,-0.1714,-0.1745,-0.1853,-0.1878,-0.1896,-0.1881,-0.1825,-0.1701,-0.1602,-0.157,-0.1607,-0.158,-0.1593,-0.1488,-0.1462,-0.1414,-0.159,-0.1534,-0.1538,-0.1541,-0.1542,-0.1544,-0.1357,-0.1373,-0.1425,-0.1473,-0.1531,-0.1577,-0.1581,-0.1645,-0.1671,-0.1669,-0.1739,-0.1665,-0.1593,-0.143,-0.1377,-0.1245,-0.1345,-0.1219,-0.1274,-0.1322,-0.1234,-0.1282,-0.1158,-0.1159,-0.116,-0.1161,-0.1162,0,-0.1295,-0.1318,-0.1365,-0.1413,-0.144,-0.1496,-0.1547,-0.1511,-0.1468,-0.1483,-0.1442,-0.1373,-0.1231,-0.1183,-0.1059,-0.0983,-0.0994,-0.0967,-0.1047,-0.1035,-0.1137,-0.1081,-0.0848,-0.0848,-0.0848,-0.0848,-0.0848,-0.0848,-0.1261,-0.1269,-0.1294,-0.13,-0.1329,-0.1298,-0.1291,-0.123,-0.1204,-0.1101,-0.107,-0.1088,-0.107,-0.1092,-0.0963,-0.0896,-0.091,-0.0854,-0.0902,-0.1028,-0.1058,-0.1088,-0.1042,-0.0804,-0.0804,-0.0756,-0.0756,-0.0756]},{"header":{"parameterUnit":"m.s-1","parameterCategory":2,"la1":30.2991,"la2":30.254,"lo1":-89.0895,"lo2":-89.0444,"dy":0.0017,"dx":0.0017,"nx":28,"ny":28,"refTime":"2025-08-21T21:00:00:Z","depth":"0","parameterNumber":3,"parameterNumberName":"V-component_of_CURRENTS"},"data":[0,0,0,0,0,0,0,0,0,0,0,0,0,0,0,0,0,0,0,0,0,0,0,0,0,0,0,0,0,0,0,0,0,0,0,0,0,0,0,0,0,0,0,0,0,0,0,0,0,0,0,0,0,0,0,0,0,0,-0.0093,-0.0092,0,-0.0014,-0.0013,-0.0012,0.006,0.0061,0.0062,0.0063,0.0135,0.0136,0.0137,0,0,0,0,0,0,0,0,0,0,0,0,0,-0.0223,-0.0221,-0.0093,-0.0092,-0.0091,-0.0014,-0.0013,-0.0012,0.0059,0.0061,0.0062,0.0063,0.0135,0.0136,0.0137,0,0,0,0,0,0,0,0,0,0,0,0,0,-0.016,-0.022,-0.0094,-0.0044,-0.0038,-0.0014,-0.0013,-0.0012,0.0059,0.0061,0.0063,0.0064,0.0135,0.0136,0.0137,0.0112,0,0,0.0141,0.0142,0,0,0,0,0,0,0,0,-0.0163,-0.0155,-0.0052,-0.0047,-0.0041,0.0017,-0.0032,0.003,0.0059,0.0019,0.0063,0.0065,0.0096,0.01,0.0108,0.0116,0.0119,0.0141,0.0142,0.0143,0.0143,0,0,0,0,0,0,0,-0.0168,-0.0159,-0.0065,-0.0051,-0.0044,-0.0039,-0.0028,-0.002,0.0045,0.0023,0.0029,0.0042,0.0099,0.0106,0.011,0.012,0.0141,0.0143,0.0143,0.0144,0.0137,0.0136,0,0,0,0,0,0,-0.0172,-0.0162,-0.0067,-0.0062,-0.0096,-0.0037,-0.0026,-0.0005,0.0045,0.0055,0.004,0.0045,0.0103,0.0108,0.0113,0.0104,0.0143,0.0144,0.0145,0.0138,0.0136,0.0135,0,0,0,0,0,0,-0.0175,-0.0164,-0.007,-0.0109,-0.0096,-0.0036,-0.0015,-0.0005,0.0009,0.0059,0.0069,0.0045,0.0105,0.0111,0.012,0.0107,0.0145,0.0146,0.0139,0.0137,0.0136,0.0076,0,0,0,0,0,0,-0.0179,-0.0165,-0.0167,-0.0109,-0.0094,-0.0063,-0.0016,-0.0004,0.0016,0.0022,0.0065,0.0074,0.0106,0.0118,0.0122,0.011,0.0147,0.014,0.0138,0.0136,0.0079,0.0072,0.0067,0,0,0,0,0,-0.0183,-0.0191,-0.0167,-0.0156,-0.0092,-0.0063,-0.0056,-0.001,0.0014,0.001,0.0043,0.0073,0.0109,0.0118,0.0122,0.0111,0.0141,0.0139,0.0137,0.0082,0.0074,0.0067,0,0,0,0,0,0,-0.0264,-0.0183,-0.0155,-0.0142,-0.0107,-0.005,-0.0052,-0.0019,0.0003,0.0009,0.0058,0.0067,0.0072,0.0093,0.0102,0.0102,0.013,0.0129,0.0087,0.008,0.0074,0.007,0.0148,0,0,0,0,0,-0.0279,-0.0254,-0.0188,-0.0183,-0.0165,-0.0112,-0.0098,-0.0064,-0.0029,-0.0017,0.0016,0.0045,0.0062,0.0073,0.0091,0.0085,0.011,0.008,0.0074,0.0069,0.0068,0.0077,0.0072,0.0128,0.0128,0.0128,0,0,-0.0313,-0.0264,-0.0254,-0.0198,-0.0167,-0.015,-0.01,-0.0081,-0.0071,-0.0016,-0.0005,0.0022,0.0055,0.0057,0.0061,0.0076,0.0068,0.0066,0.0061,0.0064,0.0074,0.0069,0.0064,0.0126,0.0127,0.0127,0,0,-0.0358,-0.0321,-0.0308,-0.0279,-0.0227,-0.0194,-0.019,-0.0135,-0.0114,-0.0103,-0.0058,-0.0039,-0.0015,0.0013,0.0028,-0.0006,0.0034,-0.0004,-0.0036,-0.0028,-0.0032,-0.0036,-0.0002,-0.0003,-0.0006,-0.0006,-0.0006,0,-0.0404,-0.0366,-0.0309,-0.029,-0.0273,-0.0215,-0.021,-0.0188,-0.014,-0.0128,-0.0108,-0.0067,-0.0035,-0.0025,-0.0028,-0.0019,-0.0002,-0.001,-0.0036,-0.0039,-0.0041,-0.0006,-0.0006,-0.0009,-0.0009,-0.0009,-0.0008,0,-0.0424,-0.0402,-0.0399,-0.0345,-0.0329,-0.032,-0.027,-0.0259,-0.0228,-0.0196,-0.0181,-0.0141,-0.0111,-0.0103,-0.0072,-0.0076,-0.0053,-0.0045,-0.0016,-0.0051,-0.0011,-0.0009,-0.0014,-0.0013,-0.0012,-0.0011,0,0,-0.0501,-0.0425,-0.0423,-0.0406,-0.0354,-0.0343,-0.0334,-0.0303,-0.0297,-0.0263,-0.0257,-0.022,-0.019,-0.017,-0.0134,-0.0124,-0.0117,-0.0095,-0.0093,-0.006,-0.0084,-0.002,-0.0011,-0.0119,-0.012,-0.012,-0.0045,0,-0.0532,-0.0505,-0.046,-0.0459,-0.0443,-0.0397,-0.0394,-0.0366,-0.0336,-0.0322,-0.0281,-0.0263,-0.0219,-0.0205,-0.0189,-0.0144,-0.0117,-0.0136,-0.0057,-0.0054,0.0008,-0.0009,0.0019,0.0092,-0.0043,-0.0043,-0.0043,0,-0.0558,-0.0531,-0.0523,-0.0492,-0.0484,-0.0482,-0.0462,-0.0451,-0.0416,-0.0393,-0.0367,-0.033,-0.0303,-0.0264,-0.02,-0.0218,-0.015,-0.0109,-0.0106,-0.0023,0.0013,0.0102,0.01,0.0228,-0.0039,-0.004,-0.004,0,-0.0614,-0.0581,-0.0573,-0.0562,-0.052,-0.052,-0.0507,-0.0474,-0.0468,-0.0438,-0.043,-0.0392,-0.0371,-0.031,-0.0206,-0.0211,-0.013,-0.0125,0.0005,0.0011,0.0064,0.0076,0.0197,-0.0065,-0.0066,-0.0066,-0.0066,0,-0.0651,-0.0649,-0.06,-0.0595,-0.0609,-0.0566,-0.0579,-0.0556,-0.0532,-0.0532,-0.0471,-0.046,-0.0384,-0.032,-0.023,-0.0102,-0.0142,0.0004,0.003,0.0046,0.0054,0.0192,0.0242,-0.0063,-0.0064,-0.0064,-0.0065,0,-0.0701,-0.0666,-0.0661,-0.0629,-0.0628,-0.0639,-0.0627,-0.0636,-0.0597,-0.0598,-0.0592,-0.0521,-0.0437,-0.033,-0.0221,-0.0122,0.0074,0.0055,0.0086,0.0115,0.0342,0.0387,0.0535,0.0612,0.0191,0.0192,0.0194,0,-0.0718,-0.0713,-0.0695,-0.0708,-0.0695,-0.0703,-0.0713,-0.0678,-0.0681,-0.0631,-0.0637,-0.055,-0.048,-0.028,-0.0108,0.0069,0.017,0.0227,0.0227,0.0367,0.0436,0.0464,0.0518,0.0277,0.028,0.0281,0.0283,0,-0.0748,-0.0739,-0.0732,-0.0761,-0.0778,-0.0797,-0.0801,-0.0811,-0.0769,-0.0745,-0.0694,-0.0633,-0.0422,-0.0217,0.0036,0.0149,0.0324,0.0271,0.0396,0.0503,0.056,0.0641,0.0234,0.0299,0.0297,0.0296,0.0295,0.0295,-0.0771,-0.0782,-0.0778,-0.0812,-0.0843,-0.0878,-0.0891,-0.0884,-0.0874,-0.0822,-0.0749,-0.0618,-0.0292,0.0057,0.0192,0.0512,0.0476,0.0609,0.065,0.0665,0.0746,0.0394,0.05,0.05,0.0499,0.0499,0.0499,0,-0.0788,-0.08,-0.0834,-0.0869,-0.0923,-0.0921,-0.0941,-0.093,-0.0912,-0.0837,-0.0756,-0.0384,-0.0061,0.0255,0.0692,0.0875,0.0904,0.0966,0.1002,0.1038,0.0711,0.0723,0.0907,0.0907,0.0907,0.0907,0.0907,0.0907,-0.0796,-0.0823,-0.0841,-0.0928,-0.0962,-0.1,-0.1007,-0.0972,-0.0903,-0.0719,-0.0514,-0.0351,0.0165,0.0778,0.1172,0.1212,0.1357,0.1351,0.143,0.1196,0.1166,0.1136,0.1161,0.1434,0.1434,0.1741,0.1744,0.1746]}],[{"header":{"parameterUnit":"m.s-1","parameterCategory":2,"la1":30.2991,"la2":30.254,"lo1":-89.0895,"lo2":-89.0444,"dy":0.0017,"dx":0.0017,"nx":28,"ny":28,"refTime":"2025-08-21T21:00:00:Z","depth":"2","parameterNumber":2,"parameterNumberName":"U-component_of_CURRENTS"},"data":[0,0,0,0,0,0,0,0,0,0,0,0,0,0,0,0,0,0,0,0,0,0,0,0,0,0,0,0,0,0,0,0,0,0,0,0,0,0,0,0,0,0,0,0,0,0,0,0,0,0,0,0,0,0,0,0,0,0,-0.1622,-0.1623,0,-0.1697,-0.1698,-0.1699,-0.1677,-0.1675,-0.1674,-0.1672,-0.1835,-0.1841,-0.1847,0,0,0,0,0,0,0,0,0,0,0,0,0,-0.1549,-0.155,-0.1622,-0.1623,-0.1624,-0.1697,-0.1698,-0.1699,-0.1677,-0.1675,-0.1673,-0.1672,-0.1833,-0.184,-0.1847,0,0,0,0,0,0,0,0,0,0,0,0,0,-0.1597,-0.155,-0.1621,-0.1622,-0.1623,-0.1697,-0.1698,-0.1699,-0.1677,-0.1675,-0.1673,-0.1671,-0.1831,-0.184,-0.1848,-0.1946,0,0,-0.1874,-0.1878,0,0,0,0,0,0,0,0,-0.1594,-0.1599,-0.1621,-0.1622,-0.1623,-0.1676,-0.1732,-0.1786,-0.1678,-0.1656,-0.1672,-0.167,-0.1792,-0.1804,-0.1821,-0.1953,-0.196,-0.1875,-0.188,-0.1884,-0.1886,0,0,0,0,0,0,0,-0.1591,-0.1597,-0.1651,-0.1622,-0.1624,-0.165,-0.1653,-0.1742,-0.1737,-0.1658,-0.1657,-0.1667,-0.1793,-0.1812,-0.1825,-0.1963,-0.1875,-0.1882,-0.1888,-0.1891,-0.2142,-0.2143,0,0,0,0,0,0,-0.1581,-0.1593,-0.1648,-0.1653,-0.1604,-0.1652,-0.1656,-0.1661,-0.1734,-0.1742,-0.1669,-0.1666,-0.1799,-0.1815,-0.1831,-0.1921,-0.1884,-0.1892,-0.1897,-0.214,-0.2142,-0.2144,0,0,0,0,0,0,-0.1579,-0.1585,-0.1645,-0.1626,-0.1635,-0.1655,-0.1661,-0.1663,-0.1679,-0.1741,-0.1751,-0.168,-0.1798,-0.1819,-0.1905,-0.1928,-0.1896,-0.1904,-0.2139,-0.2141,-0.2143,-0.2122,0,0,0,0,0,0,-0.1577,-0.1584,-0.159,-0.1625,-0.1636,-0.1675,-0.1663,-0.1666,-0.1689,-0.1685,-0.1756,-0.1768,-0.1798,-0.1892,-0.1914,-0.1939,-0.191,-0.2137,-0.214,-0.2142,-0.2121,-0.2123,-0.2126,0,0,0,0,0,-0.1574,-0.1591,-0.1589,-0.1596,-0.1641,-0.1676,-0.1684,-0.1691,-0.1692,-0.1697,-0.175,-0.1766,-0.1924,-0.1901,-0.1926,-0.1955,-0.2135,-0.2139,-0.2142,-0.212,-0.2123,-0.2125,0,0,0,0,0,0,-0.1569,-0.1592,-0.159,-0.1614,-0.1635,-0.1671,-0.1694,-0.17,-0.1747,-0.1756,-0.1802,-0.182,-0.1897,-0.1941,-0.1913,-0.2034,-0.2028,-0.2036,-0.2002,-0.2006,-0.2008,-0.2014,-0.1917,0,0,0,0,0,-0.1571,-0.1588,-0.1608,-0.1632,-0.1644,-0.1672,-0.1691,-0.1697,-0.1742,-0.1758,-0.1815,-0.1879,-0.1936,-0.1978,-0.2039,-0.2129,-0.2139,-0.2159,-0.2161,-0.2163,-0.2185,-0.2211,-0.2217,-0.2155,-0.2155,-0.2155,0,0,-0.1589,-0.1596,-0.1613,-0.1632,-0.1657,-0.1687,-0.1678,-0.1713,-0.174,-0.1778,-0.1855,-0.1898,-0.1961,-0.2036,-0.2075,-0.2074,-0.218,-0.2167,-0.2167,-0.219,-0.2215,-0.2221,-0.2226,-0.2157,-0.2157,-0.2157,0,0,-0.1619,-0.1627,-0.1646,-0.1662,-0.1689,-0.1709,-0.1717,-0.1763,-0.1778,-0.1853,-0.1877,-0.1932,-0.2044,-0.2078,-0.2111,-0.2176,-0.2187,-0.2197,-0.2225,-0.2249,-0.2254,-0.2259,-0.2245,-0.2248,-0.2203,-0.2203,-0.2202,0,-0.1641,-0.1653,-0.166,-0.1677,-0.1708,-0.1718,-0.1756,-0.1778,-0.1847,-0.1894,-0.1872,-0.2025,-0.2059,-0.215,-0.2153,-0.218,-0.2188,-0.2202,-0.225,-0.2255,-0.226,-0.2245,-0.2249,-0.2202,-0.2202,-0.2202,-0.2202,0,-0.1676,-0.169,-0.1709,-0.1733,-0.1765,-0.1801,-0.1831,-0.1877,-0.1905,-0.1942,-0.2033,-0.2069,-0.2158,-0.2164,-0.2178,-0.2245,-0.2235,-0.2239,-0.2233,-0.2264,-0.2247,-0.2251,-0.2201,-0.2201,-0.2201,-0.2202,0,0,-0.1717,-0.1733,-0.1734,-0.1752,-0.18,-0.1828,-0.1896,-0.1966,-0.2027,-0.2066,-0.2141,-0.2202,-0.2223,-0.2261,-0.2276,-0.2291,-0.2297,-0.2283,-0.2285,-0.2253,-0.2331,-0.2147,-0.2134,-0.2312,-0.2313,-0.2315,-0.2291,0,-0.1745,-0.176,-0.1783,-0.1838,-0.186,-0.1914,-0.1989,-0.2058,-0.2104,-0.2179,-0.2205,-0.2269,-0.2255,-0.2283,-0.2302,-0.2306,-0.2316,-0.2302,-0.2323,-0.2323,-0.2142,-0.2135,-0.2005,-0.1959,-0.2295,-0.2296,-0.2297,0,-0.1774,-0.1769,-0.1812,-0.1888,-0.1913,-0.1969,-0.2093,-0.216,-0.2264,-0.2295,-0.2357,-0.2372,-0.2406,-0.2367,-0.2393,-0.2388,-0.2371,-0.2354,-0.2353,-0.2199,-0.2148,-0.1993,-0.1955,-0.2305,-0.2304,-0.2303,-0.2303,0,-0.1763,-0.1807,-0.1836,-0.1856,-0.1943,-0.2012,-0.2089,-0.2213,-0.2272,-0.2359,-0.238,-0.2449,-0.2438,-0.2456,-0.2401,-0.2412,-0.2397,-0.2406,-0.2228,-0.2214,-0.2117,-0.209,-0.2432,-0.2432,-0.2432,-0.2432,-0.2432,0,-0.1778,-0.1806,-0.1833,-0.1842,-0.192,-0.2018,-0.2138,-0.221,-0.2326,-0.2377,-0.2431,-0.2423,-0.2457,-0.2439,-0.2425,-0.2309,-0.2414,-0.2228,-0.2198,-0.2099,-0.2072,-0.2398,-0.2394,-0.2431,-0.2431,-0.2432,-0.2432,0,-0.1772,-0.1784,-0.1811,-0.1878,-0.1909,-0.1972,-0.2117,-0.2186,-0.2305,-0.2354,-0.2365,-0.2398,-0.2345,-0.2353,-0.2343,-0.2285,-0.2232,-0.2174,-0.2023,-0.1973,-0.2034,-0.2031,-0.1984,-0.1978,-0.1972,-0.1967,-0.1963,0,-0.1774,-0.1777,-0.1796,-0.1801,-0.1834,-0.1936,-0.1997,-0.2141,-0.2206,-0.2303,-0.2298,-0.2272,-0.2188,-0.2092,-0.2017,-0.1942,-0.2061,-0.177,-0.1757,-0.2014,-0.1991,-0.1996,-0.1999,-0.1625,-0.1619,-0.1614,-0.1609,0,-0.1771,-0.1772,-0.1772,-0.1736,-0.1768,-0.1813,-0.1919,-0.1936,-0.2092,-0.2115,-0.2081,-0.2017,-0.1925,-0.1747,-0.1653,-0.1603,-0.177,-0.1652,-0.1993,-0.1729,-0.1665,-0.1645,-0.1663,-0.1563,-0.1567,-0.1571,-0.1573,-0.1575,-0.176,-0.1743,-0.1702,-0.1662,-0.1684,-0.1651,-0.1648,-0.1733,-0.1748,-0.1767,-0.1807,-0.1697,-0.1678,-0.1417,-0.1321,-0.1263,-0.1386,-0.1359,-0.1381,-0.1408,-0.134,-0.1267,-0.1077,-0.1078,-0.108,-0.1081,-0.1083,0,-0.1681,-0.1659,-0.1629,-0.1548,-0.1495,-0.1546,-0.1561,-0.1538,-0.1474,-0.151,-0.1477,-0.1287,-0.1141,-0.1143,-0.0965,-0.0892,-0.0953,-0.0863,-0.0979,-0.1024,-0.1064,-0.0986,-0.0625,-0.0623,-0.0622,-0.0621,0,0,-0.1632,-0.1551,-0.1495,-0.1344,-0.1319,-0.1228,-0.1191,-0.1153,-0.1175,-0.1081,-0.1061,-0.1131,-0.1124,-0.0905,-0.0823,-0.0702,-0.0868,-0.0659,-0.1028,-0.1212,-0.1252,-0.1343,-0.1268,0,0,0,0,0]},{"header":{"parameterUnit":"m.s-1","parameterCategory":2,"la1":30.2991,"la2":30.254,"lo1":-89.0895,"lo2":-89.0444,"dy":0.0017,"dx":0.0017,"nx":28,"ny":28,"refTime":"2025-08-21T21:00:00:Z","depth":"2","parameterNumber":3,"parameterNumberName":"V-component_of_CURRENTS"},"data":[0,0,0,0,0,0,0,0,0,0,0,0,0,0,0,0,0,0,0,0,0,0,0,0,0,0,0,0,0,0,0,0,0,0,0,0,0,0,0,0,0,0,0,0,0,0,0,0,0,0,0,0,0,0,0,0,0,0,-0.008,-0.008,0,-0.0036,-0.0036,-0.0035,-0.0009,-0.0009,-0.0009,-0.0009,0.0197,0.0202,0.0208,0,0,0,0,0,0,0,0,0,0,0,0,0,-0.0073,-0.0073,-0.008,-0.008,-0.0079,-0.0036,-0.0036,-0.0035,-0.0009,-0.0009,-0.0009,-0.0009,0.0195,0.0202,0.0208,0,0,0,0,0,0,0,0,0,0,0,0,0,-0.0055,-0.0073,-0.008,-0.0063,-0.0061,-0.0037,-0.0036,-0.0035,-0.0009,-0.0009,-0.0009,-0.0009,0.0193,0.0201,0.0209,0.0263,0,0,0.0235,0.0238,0,0,0,0,0,0,0,0,-0.0057,-0.0056,-0.0066,-0.0064,-0.0062,-0.003,0.0042,0.0072,-0.0009,-0.0027,-0.0009,-0.0009,0.0135,0.0148,0.0157,0.0272,0.0281,0.0235,0.0241,0.0244,0.0246,0,0,0,0,0,0,0,-0.0058,-0.0057,-0.0061,-0.0065,-0.0063,-0.0034,-0.0032,0.0048,0.0059,-0.0025,-0.0024,-0.0022,0.0137,0.0149,0.0162,0.0284,0.0235,0.0243,0.0248,0.0251,0.0517,0.0519,0,0,0,0,0,0,-0.0071,-0.0059,-0.0062,-0.006,-0.0062,-0.0034,-0.0032,-0.0038,0.0054,0.0067,-0.0022,-0.0021,0.0134,0.0153,0.017,0.0243,0.0244,0.0252,0.0257,0.0515,0.0517,0.052,0,0,0,0,0,0,-0.0071,-0.0072,-0.0064,-0.0059,-0.0056,-0.0035,-0.0042,-0.0038,-0.0027,0.0055,0.007,-0.0016,0.0135,0.0158,0.024,0.0251,0.0256,0.0263,0.0512,0.0516,0.0518,0.0388,0,0,0,0,0,0,-0.0071,-0.0072,-0.0077,-0.006,-0.0057,-0.0058,-0.0042,-0.0037,-0.0026,-0.0025,0.0066,0.0084,0.0137,0.0227,0.0248,0.0263,0.027,0.051,0.0514,0.0517,0.0389,0.0386,0.0383,0,0,0,0,0,-0.0071,-0.0082,-0.0078,-0.0078,-0.0067,-0.0059,-0.0054,-0.0037,-0.0026,-0.0026,0.0039,0.0081,0.0268,0.0234,0.0259,0.0276,0.0508,0.0513,0.0517,0.0391,0.0386,0.0383,0,0,0,0,0,0,-0.0075,-0.008,-0.0076,-0.0086,-0.0077,-0.0055,-0.0052,-0.0039,0.001,0.002,0.0097,0.012,0.0201,0.0269,0.023,0.0373,0.0401,0.041,0.0296,0.0293,0.029,0.0269,0.0277,0,0,0,0,0,-0.0081,-0.0095,-0.0087,-0.0093,-0.0092,-0.0071,-0.0063,-0.0053,-0.0012,0.0007,0.007,0.0159,0.0241,0.0286,0.0369,0.044,0.0468,0.0478,0.0474,0.047,0.0475,0.0508,0.0506,0.0535,0.0535,0.0535,0,0,-0.0083,-0.0088,-0.0093,-0.0095,-0.0085,-0.0087,-0.0066,-0.006,-0.0053,0.0029,0.0072,0.0149,0.026,0.0332,0.0377,0.0387,0.0475,0.0476,0.0471,0.0479,0.0513,0.0509,0.0506,0.0538,0.0537,0.0537,0,0,-0.01,-0.0099,-0.012,-0.0116,-0.0111,-0.0096,-0.0097,-0.0074,-0.0057,-0.0009,0.0059,0.0131,0.0256,0.0321,0.0376,0.0414,0.0457,0.0462,0.0422,0.0453,0.0449,0.0446,0.0445,0.0443,0.0458,0.0457,0.0457,0,-0.0098,-0.0129,-0.012,-0.0136,-0.0135,-0.0105,-0.0116,-0.0093,-0.0044,-0.0014,-0.0004,0.017,0.0246,0.0339,0.035,0.0401,0.042,0.041,0.044,0.0438,0.0437,0.0438,0.0437,0.0452,0.0452,0.0453,0.0454,0,-0.0136,-0.0154,-0.0163,-0.0176,-0.0168,-0.0173,-0.0146,-0.0123,-0.0092,-0.0057,0.0031,0.0119,0.0222,0.0261,0.0316,0.0371,0.0384,0.042,0.0425,0.0425,0.0427,0.0429,0.0444,0.0446,0.0447,0.0449,0,0,-0.0145,-0.0185,-0.0188,-0.0208,-0.0192,-0.0196,-0.0169,-0.0136,-0.0116,-0.0056,-0.0024,0.0103,0.0151,0.0219,0.0292,0.032,0.0309,0.0362,0.0367,0.0318,0.0353,0.037,0.0374,0.0342,0.0342,0.0343,0.0342,0,-0.0176,-0.0234,-0.023,-0.0261,-0.0284,-0.0243,-0.0223,-0.0179,-0.0132,-0.0089,0.0002,0.0065,0.0135,0.0169,0.0213,0.0292,0.0315,0.0305,0.0402,0.0404,0.0384,0.0378,0.0373,0.0374,0.0344,0.0344,0.0344,0,-0.0216,-0.0252,-0.0302,-0.032,-0.0322,-0.0323,-0.0285,-0.0264,-0.018,-0.0144,-0.0064,0.0007,0.0077,0.0121,0.0228,0.0217,0.0283,0.0331,0.0333,0.0402,0.0426,0.0385,0.0379,0.0348,0.0347,0.0347,0.0347,0,-0.0255,-0.0298,-0.0346,-0.0354,-0.036,-0.0357,-0.0344,-0.0273,-0.026,-0.0185,-0.0171,-0.006,-0.0031,0.0069,0.0194,0.02,0.0297,0.0315,0.0393,0.0393,0.0439,0.0443,0.0391,0.0391,0.0391,0.0391,0.0391,0,-0.0296,-0.0333,-0.0374,-0.0402,-0.0437,-0.041,-0.0418,-0.038,-0.0331,-0.0314,-0.021,-0.0178,-0.0043,0.0045,0.016,0.028,0.0273,0.0383,0.0401,0.0394,0.0394,0.0427,0.0431,0.0391,0.0391,0.0391,0.0391,0,-0.0335,-0.0363,-0.0425,-0.0456,-0.0465,-0.049,-0.0497,-0.0496,-0.044,-0.0423,-0.0412,-0.0294,-0.0181,-0.0029,0.0121,0.0218,0.034,0.0396,0.0365,0.038,0.0412,0.041,0.0439,0.044,0.044,0.0441,0.0441,0,-0.0363,-0.0406,-0.048,-0.0524,-0.0544,-0.0577,-0.0594,-0.0557,-0.0557,-0.048,-0.0479,-0.0368,-0.0271,-0.0052,0.0146,0.0327,0.0366,0.0421,0.0444,0.0406,0.042,0.0417,0.0415,0.0435,0.0436,0.0436,0.0436,0,-0.0422,-0.0454,-0.0511,-0.0597,-0.0644,-0.0691,-0.0712,-0.0726,-0.0669,-0.0645,-0.0575,-0.0496,-0.0269,-0.0058,0.0188,0.0306,0.0386,0.0431,0.041,0.0431,0.0405,0.0418,0.0416,0.0439,0.0439,0.0439,0.0438,0.0438,-0.0465,-0.0524,-0.0602,-0.067,-0.0734,-0.0779,-0.0802,-0.0806,-0.0796,-0.0716,-0.0636,-0.0476,-0.0284,0.0078,0.0245,0.0419,0.0418,0.0472,0.0469,0.0467,0.0474,0.0452,0.0494,0.0494,0.0494,0.0494,0.0494,0,-0.0514,-0.0585,-0.0667,-0.0748,-0.0812,-0.0827,-0.0862,-0.0856,-0.0836,-0.0718,-0.0623,-0.0387,-0.0142,0.008,0.0347,0.0474,0.047,0.0502,0.048,0.0477,0.0474,0.0481,0.0502,0.0502,0.0503,0.0503,0,0,-0.0547,-0.0635,-0.0671,-0.0784,-0.0843,-0.0902,-0.0916,-0.089,-0.0805,-0.0693,-0.0543,-0.0349,-0.0101,0.0087,0.0259,0.0397,0.0401,0.0408,0.0392,0.0344,0.0339,0.0452,0.0458,0,0,0,0,0]}],[{"header":{"parameterUnit":"m.s-1","parameterCategory":2,"la1":30.2991,"la2":30.254,"lo1":-89.0895,"lo2":-89.0444,"dy":0.0017,"dx":0.0017,"nx":28,"ny":28,"refTime":"2025-08-21T21:00:00:Z","depth":"4","parameterNumber":2,"parameterNumberName":"U-component_of_CURRENTS"},"data":[0,0,0,0,0,0,0,0,0,0,0,0,0,0,0,0,0,0,0,0,0,0,0,0,0,0,0,0,0,0,0,0,0,0,0,0,0,0,0,0,0,0,0,0,0,0,0,0,0,0,0,0,0,0,0,0,0,0,-0.1117,-0.1117,0,-0.1174,-0.1174,-0.1175,-0.1209,-0.121,-0.121,-0.121,-0.124,-0.124,-0.1241,0,0,0,0,0,0,0,0,0,0,0,0,0,-0.1032,-0.1033,-0.1117,-0.1117,-0.1118,-0.1174,-0.1174,-0.1175,-0.1209,-0.121,-0.121,-0.1211,-0.124,-0.124,-0.1241,0,0,0,0,0,0,0,0,0,0,0,0,0,-0.1075,-0.1033,-0.1116,-0.1143,-0.1147,-0.1173,-0.1174,-0.1175,-0.1209,-0.121,-0.121,-0.1211,-0.1239,-0.124,-0.1241,-0.1235,0,0,-0.1243,-0.1243,0,0,0,0,0,0,0,0,-0.1073,-0.1078,-0.1139,-0.1142,-0.1145,-0.1186,-0.1155,-0.1194,-0.1209,-0.1184,-0.121,-0.1211,-0.122,-0.1222,-0.123,-0.1237,-0.1238,-0.1243,-0.1243,-0.1244,-0.1244,0,0,0,0,0,0,0,-0.107,-0.1076,-0.1137,-0.114,-0.1144,-0.1151,-0.1157,-0.1163,-0.1197,-0.1186,-0.1189,-0.1198,-0.1221,-0.1229,-0.1231,-0.1238,-0.1243,-0.1244,-0.1244,-0.1244,-0.129,-0.1291,0,0,0,0,0,0,-0.1066,-0.1073,-0.1136,-0.1139,-0.1111,-0.1152,-0.1159,-0.1171,-0.1197,-0.1202,-0.1197,-0.1199,-0.1228,-0.123,-0.1232,-0.1273,-0.1244,-0.1244,-0.1245,-0.1289,-0.129,-0.1291,0,0,0,0,0,0,-0.1064,-0.1071,-0.1133,-0.1108,-0.1117,-0.1153,-0.1166,-0.1172,-0.1199,-0.1207,-0.1211,-0.122,-0.1228,-0.1231,-0.1256,-0.1273,-0.1245,-0.1245,-0.1288,-0.1289,-0.129,-0.1326,0,0,0,0,0,0,-0.1061,-0.107,-0.1084,-0.1108,-0.1119,-0.1161,-0.1166,-0.1173,-0.1203,-0.1207,-0.1227,-0.1229,-0.1229,-0.1255,-0.1256,-0.1273,-0.1246,-0.1287,-0.1289,-0.129,-0.1324,-0.1328,-0.1332,0,0,0,0,0,-0.1058,-0.1075,-0.1084,-0.1093,-0.1135,-0.1161,-0.1168,-0.1193,-0.1204,-0.1218,-0.1235,-0.123,-0.1265,-0.1256,-0.1258,-0.1275,-0.1286,-0.1288,-0.129,-0.1322,-0.1328,-0.1332,0,0,0,0,0,0,-0.1046,-0.1081,-0.1092,-0.1119,-0.1143,-0.1168,-0.1189,-0.1203,-0.1228,-0.1236,-0.1241,-0.1244,-0.1271,-0.1268,-0.1258,-0.1293,-0.1274,-0.1277,-0.1298,-0.1303,-0.1307,-0.1311,-0.1247,0,0,0,0,0,-0.1049,-0.1073,-0.1101,-0.1124,-0.1139,-0.1166,-0.1183,-0.1201,-0.1223,-0.1236,-0.125,-0.1264,-0.1276,-0.1287,-0.1295,-0.1315,-0.1308,-0.1327,-0.1331,-0.1335,-0.1339,-0.1353,-0.1359,-0.1297,-0.1297,-0.1297,0,0,-0.105,-0.1073,-0.1087,-0.1124,-0.1146,-0.117,-0.1178,-0.1211,-0.1234,-0.1233,-0.1272,-0.128,-0.1284,-0.1308,-0.1319,-0.1311,-0.1346,-0.1337,-0.134,-0.1343,-0.1356,-0.1362,-0.1367,-0.1298,-0.1298,-0.1297,0,0,-0.1058,-0.1086,-0.1107,-0.113,-0.1169,-0.1185,-0.1198,-0.1233,-0.1255,-0.1287,-0.1292,-0.1315,-0.1334,-0.1344,-0.1349,-0.138,-0.1366,-0.1382,-0.1409,-0.1423,-0.1428,-0.1432,-0.142,-0.1423,-0.1386,-0.1386,-0.1386,0,-0.1057,-0.1088,-0.1116,-0.1141,-0.1163,-0.1194,-0.1217,-0.1243,-0.1282,-0.1301,-0.1305,-0.1347,-0.1352,-0.138,-0.1392,-0.139,-0.1387,-0.139,-0.1428,-0.1432,-0.1437,-0.1423,-0.1426,-0.1388,-0.1388,-0.1387,-0.1387,0,-0.1074,-0.1107,-0.1123,-0.1165,-0.119,-0.1218,-0.1253,-0.1284,-0.1312,-0.1336,-0.1378,-0.1391,-0.1414,-0.1421,-0.1417,-0.1449,-0.1432,-0.143,-0.1415,-0.1445,-0.1428,-0.1431,-0.1391,-0.139,-0.1389,-0.1389,0,0,-0.1044,-0.112,-0.1125,-0.1153,-0.1206,-0.1226,-0.127,-0.1312,-0.1341,-0.1384,-0.142,-0.145,-0.1462,-0.1468,-0.1471,-0.1487,-0.1507,-0.1474,-0.1474,-0.1461,-0.1521,-0.1426,-0.1419,-0.1514,-0.1515,-0.1516,-0.1493,0,-0.1047,-0.1099,-0.1134,-0.1182,-0.1212,-0.1254,-0.1288,-0.1332,-0.137,-0.1412,-0.1444,-0.1476,-0.1479,-0.1491,-0.1512,-0.1512,-0.1518,-0.1513,-0.1495,-0.1494,-0.1406,-0.1421,-0.1519,-0.1494,-0.1495,-0.1495,-0.1496,0,-0.1043,-0.1084,-0.1133,-0.12,-0.1215,-0.1247,-0.1305,-0.1339,-0.1401,-0.1431,-0.1476,-0.15,-0.1539,-0.1531,-0.1556,-0.1554,-0.154,-0.1536,-0.1535,-0.1438,-0.1404,-0.1462,-0.15,-0.15,-0.1499,-0.1499,-0.1499,0,-0.1003,-0.1078,-0.1119,-0.1143,-0.1221,-0.1251,-0.1287,-0.1348,-0.1377,-0.1444,-0.1472,-0.1524,-0.1548,-0.156,-0.156,-0.1561,-0.1573,-0.1569,-0.1467,-0.1459,-0.1536,-0.1532,-0.1576,-0.1576,-0.1576,-0.1576,-0.1576,0,-0.0981,-0.1016,-0.1111,-0.1133,-0.1178,-0.1237,-0.1281,-0.1323,-0.1383,-0.1411,-0.1479,-0.1503,-0.156,-0.1575,-0.1567,-0.152,-0.1577,-0.1469,-0.1451,-0.1549,-0.1546,-0.1537,-0.1532,-0.1575,-0.1575,-0.1575,-0.1575,0,-0.0925,-0.0991,-0.1044,-0.1134,-0.1163,-0.1193,-0.1267,-0.1289,-0.136,-0.1398,-0.142,-0.1495,-0.1512,-0.1542,-0.1553,-0.1512,-0.1486,-0.145,-0.1541,-0.1528,-0.1359,-0.1357,-0.1333,-0.1329,-0.1326,-0.1324,-0.1322,0,-0.09,-0.0926,-0.1027,-0.1055,-0.1099,-0.1157,-0.1184,-0.1263,-0.1279,-0.1377,-0.1376,-0.1435,-0.1471,-0.1416,-0.1453,-0.1423,-0.1408,-0.138,-0.1382,-0.1351,-0.1336,-0.1339,-0.1341,-0.1317,-0.1316,-0.1316,-0.1315,0,-0.0844,-0.089,-0.0933,-0.0989,-0.1031,-0.1071,-0.1118,-0.1126,-0.1208,-0.1288,-0.131,-0.1329,-0.1343,-0.1354,-0.1336,-0.1317,-0.1396,-0.1349,-0.1355,-0.1357,-0.1332,-0.1321,-0.1326,-0.1305,-0.1306,-0.1307,-0.1308,0,-0.0801,-0.081,-0.0867,-0.0909,-0.0955,-0.0966,-0.1011,-0.1039,-0.1074,-0.1185,-0.1188,-0.126,-0.1332,-0.1296,-0.1282,-0.1255,-0.1238,-0.1202,-0.1215,-0.1227,-0.1202,-0.1156,-0.1056,0,0,0,0,0,-0.0751,-0.0752,-0.0778,-0.0819,-0.0859,-0.0886,-0.095,-0.0996,-0.1085,-0.1069,-0.1129,-0.1141,-0.1148,-0.1183,-0.113,-0.1211,-0.1227,-0.1144,-0.1189,-0.1248,-0.126,-0.1241,0,0,0,0,0,0,-0.0719,-0.0739,-0.0747,-0.0731,-0.0739,-0.0769,-0.0809,-0.0876,-0.0875,-0.0979,-0.0987,-0.1068,-0.1083,-0.116,-0.1107,-0.1113,-0.1117,-0.1186,-0.1183,-0.1242,-0.1252,-0.1262,-0.1247,0,0,0,0,0]},{"header":{"parameterUnit":"m.s-1","parameterCategory":2,"la1":30.2991,"la2":30.254,"lo1":-89.0895,"lo2":-89.0444,"dy":0.0017,"dx":0.0017,"nx":28,"ny":28,"refTime":"2025-08-21T21:00:00:Z","depth":"4","parameterNumber":3,"parameterNumberName":"V-component_of_CURRENTS"},"data":[0,0,0,0,0,0,0,0,0,0,0,0,0,0,0,0,0,0,0,0,0,0,0,0,0,0,0,0,0,0,0,0,0,0,0,0,0,0,0,0,0,0,0,0,0,0,0,0,0,0,0,0,0,0,0,0,0,0,-0.0075,-0.0074,0,-0.0059,-0.0058,-0.0058,-0.004,-0.004,-0.004,-0.004,-0.0004,-0.0004,-0.0003,0,0,0,0,0,0,0,0,0,0,0,0,0,-0.006,-0.0061,-0.0075,-0.0074,-0.0074,-0.0059,-0.0058,-0.0058,-0.004,-0.004,-0.004,-0.004,-0.0005,-0.0004,-0.0003,0,0,0,0,0,0,0,0,0,0,0,0,0,-0.0057,-0.0061,-0.0075,-0.0064,-0.0063,-0.0059,-0.0058,-0.0058,-0.004,-0.004,-0.004,-0.0039,-0.0005,-0.0004,-0.0003,-0.0002,0,0,0.0001,0.0001,0,0,0,0,0,0,0,0,-0.0058,-0.0058,-0.0066,-0.0065,-0.0063,-0.0052,-0.004,-0.0039,-0.004,-0.0048,-0.004,-0.0039,-0.0019,-0.0017,-0.0014,-0.0,0.0001,0.0001,0.0002,0.0002,0.0002,0,0,0,0,0,0,0,-0.0058,-0.0058,-0.0068,-0.0066,-0.0064,-0.005,-0.0049,-0.004,-0.0035,-0.0048,-0.0046,-0.0046,-0.0018,-0.0015,-0.0013,0.0002,0.0001,0.0002,0.0003,0.0003,0.0011,0.0011,0,0,0,0,0,0,-0.0063,-0.0059,-0.0068,-0.0067,-0.006,-0.0051,-0.005,-0.0055,-0.0035,-0.0032,-0.0046,-0.0045,-0.0017,-0.0014,-0.0011,-0.0013,0.0002,0.0003,0.0004,0.0012,0.0011,0.0011,0,0,0,0,0,0,-0.0063,-0.0064,-0.0069,-0.0062,-0.0062,-0.0052,-0.0057,-0.0055,-0.0051,-0.0034,-0.0031,-0.0044,-0.0017,-0.0013,-0.0007,-0.0011,0.0004,0.0005,0.0012,0.0012,0.0011,-0.0013,0,0,0,0,0,0,-0.0063,-0.0064,-0.0069,-0.0063,-0.0063,-0.0072,-0.0058,-0.0055,-0.0052,-0.005,-0.0032,-0.0028,-0.0016,-0.0009,-0.0006,-0.0009,0.0006,0.0013,0.0012,0.0011,-0.0012,-0.0015,-0.0017,0,0,0,0,0,-0.0062,-0.0072,-0.0069,-0.007,-0.007,-0.0072,-0.0071,-0.0061,-0.0052,-0.0055,-0.0042,-0.0029,-0.0012,-0.0008,-0.0004,-0.0008,0.0013,0.0012,0.0011,-0.0011,-0.0014,-0.0017,0,0,0,0,0,0,-0.0067,-0.0071,-0.0068,-0.0078,-0.0077,-0.0069,-0.007,-0.0063,-0.0055,-0.0052,-0.0033,-0.0029,-0.0027,-0.0015,-0.0012,-0.0009,0.0002,0.0002,-0.0016,-0.0019,-0.0021,-0.0024,0.0006,0,0,0,0,0,-0.0071,-0.0081,-0.0079,-0.0087,-0.0088,-0.0079,-0.0077,-0.0072,-0.0065,-0.006,-0.0048,-0.0036,-0.0029,-0.0022,-0.0015,-0.0011,0.0015,-0.0012,-0.0015,-0.0017,-0.0018,0.0024,0.0026,0.0007,0.0007,0.0007,0,0,-0.0075,-0.0078,-0.0083,-0.0089,-0.0086,-0.0095,-0.0077,-0.0079,-0.0085,-0.0058,-0.006,-0.0046,-0.0031,-0.0029,-0.0027,-0.0019,-0.0,-0.0018,-0.002,-0.002,0.0023,0.0025,0.0027,0.0007,0.0007,0.0007,0,0,-0.0091,-0.0091,-0.0106,-0.0108,-0.0109,-0.0105,-0.0107,-0.0102,-0.0097,-0.0097,-0.0081,-0.0067,-0.0058,-0.0045,-0.0038,-0.005,-0.0017,-0.0051,-0.0062,-0.0021,-0.0019,-0.0016,0.0014,0.002,-0.0049,-0.0049,-0.0049,0,-0.0095,-0.0116,-0.0109,-0.0124,-0.0131,-0.0113,-0.0131,-0.0124,-0.0117,-0.0114,-0.0103,-0.0081,-0.0065,-0.0056,-0.0061,-0.0054,-0.0029,-0.005,-0.0023,-0.002,-0.0017,0.0014,0.002,-0.005,-0.005,-0.005,-0.005,0,-0.0125,-0.014,-0.0149,-0.0164,-0.0169,-0.018,-0.0174,-0.0174,-0.0163,-0.0152,-0.0141,-0.0112,-0.0098,-0.009,-0.0078,-0.0057,-0.0045,-0.0032,-0.0013,-0.0017,0.0016,0.0023,-0.0052,-0.0052,-0.0051,-0.0051,0,0,-0.0138,-0.0166,-0.0169,-0.0188,-0.0193,-0.0203,-0.021,-0.0214,-0.022,-0.0194,-0.0193,-0.0164,-0.0139,-0.0129,-0.0104,-0.0065,-0.0022,-0.0042,-0.0039,-0.0007,0.0064,0.0055,0.0062,-0.0001,0.0001,0.0001,0.0078,0,-0.0164,-0.0206,-0.021,-0.0247,-0.0269,-0.0261,-0.0273,-0.027,-0.0256,-0.0249,-0.0202,-0.0191,-0.0157,-0.0147,-0.0102,-0.0047,-0.0005,-0.0045,0.006,0.0063,0.0059,0.0069,0.0005,0.0083,0.0085,0.0086,0.0087,0,-0.0191,-0.0219,-0.0264,-0.03,-0.0308,-0.0325,-0.0342,-0.0349,-0.0327,-0.0314,-0.0279,-0.0244,-0.019,-0.0157,-0.0048,-0.0074,-0.0009,0.0043,0.0048,0.0053,0.0066,0.0089,0.01,0.0099,0.0098,0.0097,0.0096,0,-0.0211,-0.0256,-0.0297,-0.0309,-0.0343,-0.036,-0.0372,-0.0368,-0.0378,-0.0348,-0.0343,-0.0274,-0.0238,-0.0144,-0.0042,-0.004,0.0082,0.0099,0.0154,0.0154,0.0151,0.0148,0.0183,0.0183,0.0183,0.0183,0.0182,0,-0.0238,-0.0271,-0.0312,-0.0335,-0.0385,-0.0391,-0.0428,-0.0429,-0.0425,-0.0434,-0.0374,-0.0351,-0.0229,-0.0149,-0.0051,0.0068,0.0078,0.0155,0.0176,0.0137,0.0132,0.0156,0.0152,0.0185,0.0185,0.0184,0.0184,0,-0.0251,-0.0279,-0.0331,-0.0379,-0.0398,-0.043,-0.0473,-0.0494,-0.0482,-0.0488,-0.0479,-0.0401,-0.0288,-0.0173,-0.0021,0.0051,0.0165,0.0205,0.0144,0.0159,0.0215,0.0208,0.0281,0.0282,0.0282,0.0282,0.0282,0,-0.0262,-0.029,-0.0362,-0.0403,-0.0428,-0.0476,-0.0511,-0.0522,-0.0536,-0.0513,-0.0509,-0.0416,-0.0349,-0.014,-0.0017,0.016,0.0186,0.0236,0.0239,0.0213,0.0226,0.0219,0.0213,0.0283,0.0283,0.0283,0.0283,0,-0.0281,-0.0307,-0.0351,-0.043,-0.0483,-0.0539,-0.0579,-0.0595,-0.0597,-0.0591,-0.0522,-0.0418,-0.0294,-0.0132,-0.0006,0.0124,0.0198,0.024,0.0241,0.0244,0.0216,0.0227,0.022,0.0284,0.0284,0.0284,0.0284,0,-0.0289,-0.0325,-0.0384,-0.0455,-0.0526,-0.0581,-0.0602,-0.0606,-0.0614,-0.058,-0.0552,-0.0418,-0.0337,-0.015,-0.0029,0.0089,0.0129,0.0165,0.0171,0.0171,0.0113,0.0059,0.0101,0,0,0,0,0,-0.0291,-0.0337,-0.0406,-0.0486,-0.0556,-0.0594,-0.0641,-0.065,-0.0648,-0.0604,-0.0578,-0.0458,-0.0266,-0.0174,-0.0054,-0.0023,0.014,0.012,0.0182,0.0291,0.0289,0.0239,0,0,0,0,0,0,-0.0298,-0.0358,-0.0402,-0.0495,-0.0551,-0.0622,-0.0653,-0.0654,-0.0617,-0.0595,-0.0484,-0.0433,-0.0237,-0.0331,-0.0051,-0.0016,0.0038,0.0211,0.0214,0.0291,0.029,0.0289,0.0237,0,0,0,0,0]}]]